�S���n�������c�̃R�[�h,ID,�n�������c�̖�,����,����_�J�i,����_�p��,���ݒn�Q�S���n�������c�̃R�[�h,����ID,���ݒn�Q�A���W�L,���ݒn�Q�s���{��,���ݒn�Q�s�撬��,���ݒn�Q����,���ݒn�Q�Ԓn�ȉ�,���������i�����j,�ݒu�ʒu,�ܓx,�o�x,���x�̎��,���x�̒l,�j���g�C������,�j���g�C�����i���֊�j,�j���g�C�����i�a���j,�j���g�C�����i�m���j,�����g�C������,�����g�C�����i�a���j,�����g�C�����i�m���j,�j�����p�g�C������,�j�����p�g�C�����i�a���j,�j�����p�g�C�����i�m���j,�o���A�t���[�g�C����,�Ԉ֎q�g�p�җp�g�C���L��,���c���p�ݔ��ݒu�g�C���L��,�I�X�g���C�g�ݒu�g�C���L��,���p�J�n����,���p�I������,���p�\���ԓ��L����,�摜,�摜_���C�Z���X,���l
232076,TY1300000001,���m���L��s,���K����,�~���L�R�E�G��,,232076,,���m���L��s���K���񒚖�58,���m��,�L��s,���K���񒚖�,58,,,34.834965,137.388636,,,,,,,,,,,,,,�L,�L,,,,,,,���@�\�g�C���L�i�Ԉ֎q�E���c���j�E���ԏꖳ
232076,TY1300000002,���m���L��s,������,�A�P�{�m�R�E�G��,,232076,,���m���L��s�����O����8,���m��,�L��s,�����O����,8,,,34.839876,137.393916,,,,,,,,,,,,,,�L,�L,,,,,,,���@�\�g�C���L�i�Ԉ֎q�E���c���j�E���ԏꖳ
232076,TY1300000003,���m���L��s,���،���,�T�N���M�R�E�G��,,232076,,���m���L��s���ؒʌܒ���7,���m��,�L��s,���ؒʌܒ���,7,,,34.832458,137.389126,,,,,,,,,,,,,,�L,,,,,,,,���@�\�g�C���L�i�Ԉ֎q�j�E���ԏꖳ
232076,TY1300000004,���m���L��s,�����،���,�q�K�V�T�N���M�R�E�G��,,232076,,���m���L��s�����ؒ�138,���m��,�L��s,�����ؒ�,138,,,34.828396,137.393980,,,,,,,,,,,,,,,,,,,,,,�g�C���L�E���ԏꖳ
232076,TY1300000005,���m���L��s,�����ʌ���,�`���E�I�E�h�I���R�E�G��,,232076,,���m���L��s�����ʎl����43,���m��,�L��s,�����ʎl����,43,,,34.824558,137.381472,,,,,,,,,,,,,,�L,,,,,,,,���@�\�g�C���L�i�Ԉ֎q�j�E���ԏꖳ
232076,TY1300000006,���m���L��s,����������,�J�i���o�V�R�E�G��,,232076,,���m���L��s��������48,���m��,�L��s,��������,48,,,34.823701,137.378133,,,,,,,,,,,,,,,,,,,,,,�g�C���L�E���ԏꖳ
232076,TY1300000007,���m���L��s,��������,�J�i���R�E�G��,,232076,,���m���L��s�����{���񒚖�25,���m��,�L��s,�����{���񒚖�,25,,,34.820371,137.382075,,,,,,,,,,,,,,�L,�L,,,,,,,���@�\�g�C���L�i�Ԉ֎q�E���c���j�E���ԏꖳ
232076,TY1300000008,���m���L��s,��������,�}�c�J�[�R�E�G��,,232076,,���m���L��s������27,���m��,�L��s,������,27,,,34.817575,137.388392,,,,,,,,,,,,,,�L,�L,,,,,,,���@�\�g�C���L�i�Ԉ֎q�E���c���j�E���ԏꖳ
232076,TY1300000009,���m���L��s,���m�،���,�g�E�m�L�R�E�G��,,232076,,���m���L��s���m�ؒ��꒚��46,���m��,�L��s,���m�ؒ��꒚��,46,,,34.815285,137.381304,,,,,,,,,,,,,,�L,�L,,,,,,,���@�\�g�C���L�i�Ԉ֎q�E���c���j�E���ԏꖳ
232076,TY1300000010,���m���L��s,���v�ۉw�ʌ���,�E�V�N�{�G�L�h�I���R�E�G��,,232076,,���m���L��s���v�ۉw�ʌܒ���1,���m��,�L��s,���v�ۉw�ʌܒ���,1,,,34.819433,137.376955,,,,,,,,,,,,,,,,,,,,,,�g�C���L�E���ԏꖳ
232076,TY1300000011,���m���L��s,��������,�^�J�~�R�E�G��,,232076,,���m���L��s�������l����84,���m��,�L��s,�������l����,84,,,34.812518,137.372589,,,,,,,,,,,,,,�L,,,,,,,,���@�\�g�C���L�i�Ԉ֎q�j�E���ԏꖳ
232076,TY1300000012,���m���L��s,���ˌ���,�j�V�d�J�R�E�G��,,232076,,���m���L��s���˒��꒚��32-2,���m��,�L��s,���˒��꒚��,32��2,,,34.815575,137.370756,,,,,,,,,,,,,,,,,,,,,,�g�C���L�E���ԏꖳ
232076,TY1300000013,���m���L��s,�����,�T�J�C�R�E�G��,,232076,,���m���L��s�䒬�񒚖�34,���m��,�L��s,�䒬�񒚖�,34,,,34.817524,137.363680,,,,,,,,,,,,,,�L,,,,,,,,���@�\�g�C���L�i�Ԉ֎q�j�E���ԏꖳ
232076,TY1300000014,���m���L��s,���R����,�n�M���}�R�E�G��,,232076,,���m���L��s���R���꒚��110,���m��,�L��s,���R���꒚��,110,,,34.823425,137.368293,,,,,,,,,,,,,,�L,,,,,,,,���@�\�g�C���L�i�Ԉ֎q�j�E���ԏꖳ
232076,TY1300000015,���m���L��s,��c����,�_�C�_�R�E�G��,,232076,,���m���L��s��c���꒚��34,���m��,�L��s,��c���꒚��,34,,,34.825327,137.359539,,,,,,,,,,,,,,�L,,,,,,,,���@�\�g�C���L�i�Ԉ֎q�j�E���ԏꖳ
232076,TY1300000016,���m���L��s,�s������,�C�`�~�`�R�E�G��,,232076,,���m���L��s�Ԉ䒬12-1,���m��,�L��s,�Ԉ䒬,12��1,,,34.816264,137.391156,,,,,,,,,,,,,,�L,,,,,,,,���@�\�g�C���L�i�Ԉ֎q�j�E���ԏꖳ
232076,TY1300000017,���m���L��s,���R����,���J�C���}�R�E�G��,,232076,,���m���L��s���q�꒚��5,���m��,�L��s,���q�꒚��,5,,,34.816537,137.357891,,,,,,,,,,,,,,�L,,,,,,,,���@�\�g�C���L�i�Ԉ֎q�j�E���ԏꖳ
232076,TY1300000018,���m���L��s,�_�P�����,�m�E�K�K�~�R�E�G��,,232076,,���m���L��s���q�O����3,���m��,�L��s,���q�O����,3,,,34.821995,137.354119,,,,,,,,,,,,,,�L,,,,,,,,���@�\�g�C���L�i�Ԉ֎q�j�E���ԏꖳ
232076,TY1300000019,���m���L��s,�쒆����,�m�i�J�R�E�G��,,232076,,���m���L��s���q�l����7,���m��,�L��s,���q�l����,7,,,34.825035,137.355827,,,,,,,,,,,,,,�L,,,,,,,,���@�\�g�C���L�i�Ԉ֎q�j�E���ԏꖳ
232076,TY1300000020,���m���L��s,��������,�g�E�R�E�R�E�G��,,232076,,���m���L��s�������񒚖�71,���m��,�L��s,�������񒚖�,71,,,34.830710,137.395063,,,,,,,,,,,,,,�L,,,,,,,,���@�\�g�C���L�i�Ԉ֎q�j�E���ԏꖳ
232076,TY1300000021,���m���L��s,���L����,�j�V���^�J�R�E�G��,,232076,,���m���L��s���L���񒚖�134,���m��,�L��s,���L���񒚖�,134,,,34.829335,137.398677,,,,,,,,,,,,,,�L,,,,,,,,���@�\�g�C���L�i�Ԉ֎q�j�E���ԏꖳ
232076,TY1300000022,���m���L��s,���ʌ���,�^�h�I���R�E�G��,,232076,,���m���L��s��x��166,���m��,�L��s,��x��,166,,,34.832027,137.399432,,,,,,,,,,,,,,,,,,,,,,�g�C���L�E���ԏꖳ
232076,TY1300000023,���m���L��s,�]�ʌ���,�\�h�I���R�E�G��,,232076,,���m���L��s������122,���m��,�L��s,������,122,,,34.835811,137.396974,,,,,,,,,,,,,,�L,�L,,,,,,,���@�\�g�C���L�i�Ԉ֎q�E���c���j�E���ԏꖳ
232076,TY1300000024,���m���L��s,�{�쌴��2����,�z���m�n���_�C�j�R�E�G��,,232076,,���m���L��s�{��P���꒚��160,���m��,�L��s,�{��P���꒚��,160,,,34.838397,137.402196,,,,,,,,,,,,,,�L,,,,,,,,���@�\�g�C���L�i�Ԉ֎q�j�E���ԏꖳ
232076,TY1300000025,���m���L��s,���J������,�X���n���R�E�G��,,232076,,���m���L��s��痼�񒚖�100,���m��,�L��s,��痼�񒚖�,100,,,34.849787,137.371569,,,,,,,,,,,,,,�L,�L,,,,,,,���@�\�g�C���L�i�Ԉ֎q�E���c���j�E���ԏꖳ
232076,TY1300000026,���m���L��s,��������,�e���}�`�R�E�G��,,232076,,���m���L��s���v�ے�������45-3,���m��,�L��s,���v�ے�������,45��3,,,34.812401,137.381025,,,,,,,,,,,,,,,,,,,,,,�g�C���L�E���ԏꖳ
232076,TY1300000027,���m���L��s,�s�،���,�C�`�M�R�E�G��,,232076,,���m���L��s�ד����Ŗ�31,���m��,�L��s,�ד����Ŗ�,31,,,34.815998,137.317879,,,,,,,,,,,,,,�L,�L,,,,,,,���@�\�g�C���L�i�Ԉ֎q�E���c���j�E���ԏꖳ
232076,TY1300000028,���m���L��s,�Ŗ،���,�V�C�m�L�R�E�G��,,232076,,���m���L��s�ד����Ŗ�297,���m��,�L��s,�ד����Ŗ�,297,,,34.813293,137.321559,,,,,,,,,,,,,,,,,,,,,,�g�C���L�E���ԏꖳ
232076,TY1300000029,���m���L��s,�T�c�L����,�T�c�L�R�E�G��,,232076,,���m���L��s�ɓޒ��V��116-1,���m��,�L��s,�ɓޒ��V��,116��1,,,34.810269,137.353810,,,,,,,,,,,,,,�L,�L,,,,,,,���@�\�g�C���L�i�Ԉ֎q�E���c���j�E���ԏꖳ
232076,TY1300000030,���m���L��s,�V����2����,�V���~�`�_�C�j�R�E�G��,,232076,,���m���L��s�V�����꒚��1-2,���m��,�L��s,�V�����꒚��,1-2,,,34.825625,137.365204,,,,,,,,,,,,,,�L,�L,,,,,,,���@�\�g�C���L�i�Ԉ֎q�E���c���j�E���ԏꖳ
232076,TY1300000031,���m���L��s,�z�K����,�X���R�E�G��,,232076,,���m���L��s�z�K�O����130-1,���m��,�L��s,�z�K�O����,130��1,,,34.825972,137.369357,,,,,,,,,,,,,,�L,,,,,,,,���@�\�g�C���L�i�Ԉ֎q�j�E���ԏꖳ
232076,TY1300000032,���m���L��s,��ܘY��1����,���S���E�_�C�C�`�R�E�G��,,232076,,���m���L��s������������83,���m��,�L��s,������������,83,,,34.830775,137.349721,,,,,,,,,,,,,,�L,,,,,,,,���@�\�g�C���L�i�Ԉ֎q�j�E���ԏꖳ
232076,TY1300000033,���m���L��s,��ܘY��2����,���S���E�_�C�j�R�E�G��,,232076,,���m���L��s���������V��68,���m��,�L��s,���������V��,68,,,34.831796,137.345295,,,,,,,,,,,,,,�L,�L,,,,,,,���@�\�g�C���L�i�Ԉ֎q�E���c���j�E���ԏꖳ
232076,TY1300000034,���m���L��s,�������,�i���e�K�~�R�E�G��,,232076,,���m���L��s�n�꒬����43,���m��,�L��s,�n�꒬����,43,,,34.818304,137.400415,,,,,,,,,,,,,,,,,,,,,,�g�C���L�E���ԏꖳ
232076,TY1300000035,���m���L��s,�Z�g����,�X�~���V�R�E�G��,,232076,,���m���L��s�Z�g���񒚖�112,���m��,�L��s,�Z�g���񒚖�,112,,,34.816924,137.403662,,,,,,,,,,,,,,�L,�L,,,,,,,���@�\�g�C���L�i�Ԉ֎q�E���c���j�E���ԏꖳ
232076,TY1300000036,���m���L��s,��������,�}�c�V�^�R�E�G��,,232076,,���m���L��s�n�꒬����69,���m��,�L��s,�n�꒬����,69,,,34.823195,137.403692,,,,,,,,,,,,,,�L,�L,,,,,,,���@�\�g�C���L�i�Ԉ֎q�E���c���j�E���ԏꖳ
232076,TY1300000037,���m���L��s,�O���q����,�T���]�E�S�R�E�G��,,232076,,���m���L��s�O���q�����r�q34,���m��,�L��s,�O���q�����r�q,34,,,34.838537,137.388746,,,,,,,,,,,,,,,,,,,,,,�g�C���L�E���ԏꖳ
232076,TY1300000038,���m���L��s,�\�m������,�m�E�j���h�E�R�E�G��,,232076,,���m���L��s�l�b�J���񒚖�46-1,���m��,�L��s,�l�b�J���񒚖�,46��1,,,34.818876,137.369330,,,,,,,,,,,,,,�L,�L,,,,,,,���@�\�g�C���L�i�Ԉ֎q�E���c���j�E���ԏꖳ
232076,TY1300000039,���m���L��s,��t����,�����c�M�R�E�G��,,232076,,���m���L��s�����O����11-1,���m��,�L��s,�����O����,11��1,,,34.819159,137.350770,,,,,,,,,,,,,,,,,,,,,,�g�C���L�E���ԏꖳ
232076,TY1300000040,���m���L��s,���͌�����,�V���K�����R�E�G��,,232076,,���m���L��s��������쌴123,���m��,�L��s,��������쌴,123,,,34.840060,137.318171,,,,,,,,,,,,,,�L,�L,,,,,,,���@�\�g�C���L�i�Ԉ֎q�E���c���j�E���ԏꖳ
232076,TY1300000041,���m���L��s,��m�،���,�C�`�m�c�{�R�E�G��,,232076,,���m���L��s�������m��93,���m��,�L��s,�������m��,93,,,34.841676,137.315814,,,,,,,,,,,,,,�L,�L,,,,,,,���@�\�g�C���L�i�Ԉ֎q�E���c���j�E���ԏꖳ
232076,TY1300000042,���m���L��s,�I�؎R����,�N���L���}�R�E�G��,,232076,,���m���L��s������I�؎R185,���m��,�L��s,������I�؎R,185,,,34.843603,137.312679,,,,,,,,,,,,,,�L,�L,,,,,,,���@�\�g�C���L�i�Ԉ֎q�E���c���j�E���ԏꖳ
232076,TY1300000043,���m���L��s,��V�ؐ�����,�J�~�V���L���j�V�R�E�G��,,232076,,���m���L��s��{���L37,���m��,�L��s,��{���L,37,,,34.858169,137.423352,,,,,,,,,,,,,,�L,�L,,,,,,,���@�\�g�C���L�i�Ԉ֎q�E���c���j�E���ԏꖳ
232076,TY1300000044,���m���L��s,��V�ؒ�����,�J�~�V���L���i�J�R�E�G��,,232076,,���m���L��s��{����75,���m��,�L��s,��{����,75,,,34.860352,137.426083,,,,,,,,,,,,,,�L,�L,,,,,,,���@�\�g�C���L�i�Ԉ֎q�E���c���j�E���ԏꖳ
232076,TY1300000045,���m���L��s,��V�ؓ�����,�J�~�V���L���q�K�V�R�E�G��,,232076,,���m���L��s��{����196,���m��,�L��s,��{����,196,,,34.859836,137.428989,,,,,,,,,,,,,,�L,�L,,,,,,,���@�\�g�C���L�i�Ԉ֎q�E���c���j�E���ԏꖳ
232076,TY1300000046,���m���L��s,�勴����,�I�I�n�V�R�E�G��,,232076,,���m���L��s�勴���񒚖�20,���m��,�L��s,�勴���񒚖�,20,,,34.835331,137.411340,,,,,,,,,,,,,,,,,,,,,,�g�C���L�E���ԏꖳ
232076,TY1300000047,���m���L��s,�J�����,���K���R�E�G��,,232076,,���m���L��s�J�쒬�V��167,���m��,�L��s,�J�쒬�V��,167,,,34.832280,137.409943,,,,,,,,,,,,,,�L,�L,,,,,,,���@�\�g�C���L�i�Ԉ֎q�E���c���j�E���ԏꖳ
232076,TY1300000048,���m���L��s,�a�ʌ���,���h�I���R�E�G��,,232076,,���m���L��s�������꒚��63,���m��,�L��s,�������꒚��,63,,,34.832522,137.406810,,,,,,,,,,,,,,�L,�L,,,,,,,���@�\�g�C���L�i�Ԉ֎q�E���c���j�E���ԏꖳ
232076,TY1300000049,���m���L��s,�L����,���^�J�R�E�G��,,232076,,���m���L��s���L���l����52,���m��,�L��s,���L���l����,52,,,34.829025,137.405179,,,,,,,,,,,,,,�L,�L,,,,,,,���@�\�g�C���L�i�Ԉ֎q�E���c���j�E���ԏꖳ
232076,TY1300000050,���m���L��s,�q�쐼����,�}�L�m�j�V�R�E�G��,,232076,,���m���L��s�q�쒬�񒚖�125,���m��,�L��s,�q�쒬�񒚖�,125,,,34.826830,137.408098,,,,,,,,,,,,,,,,,,,,,,�g�C���L�E���ԏꖳ
232076,TY1300000051,���m���L��s,������������,�J�P�V�^�R�E�G��,,232076,,���m���L��s���������57,���m��,�L��s,���������,57,,,34.843966,137.325570,,,,,,,,,,,,,,,,,,,,,,�g�C���L�E���ԏꖳ
232076,TY1300000052,���m���L��s,�O���[���q��������,�O���[���q���i�J�R�E�G��,,232076,,���m���L��s���򒬑�o212,���m��,�L��s,���򒬑�o,212,,,34.871191,137.297199,,,,,,,,,,,,,,,,,,,,,,�g�C���L�E���ԏꖳ
232076,TY1300000053,���m���L��s,�O���[���q���k����,�O���[���q���L�^�R�E�G��,,232076,,���m���L��s���򒬑�o359,���m��,�L��s,���򒬑�o,359,,,34.870983,137.300626,,,,,,,,,,,,,,,,,,,,,,�g�C���L�E���ԏꖳ
232076,TY1300000054,���m���L��s,�ԍ��2������,�A�J�T�J�_�C�j�S�E�R�E�G��,,232076,,���m���L��s�ԍ⒬���308,���m��,�L��s,�ԍ⒬���,308,,,34.871046,137.307731,,,,,,,,,,,,,,,,,,,,,,�g�C���L�E���ԏꖳ
232076,TY1300000055,���m���L��s,�z�K������,�X���j�V�R�E�G��,,232076,,���m���L��s�z�K�����񒚖�158-2,���m��,�L��s,�z�K�����񒚖�,158��2,,,34.830926,137.363029,,,,,,,,,,,,,,,,,,,,,,�g�C���L�E���ԏꖳ
232076,TY1300000056,���m���L��s,����������,�q���I�j�V�R�E�G��,,232076,,���m���L��s�������[�c140,���m��,�L��s,�������[�c,140,,,34.850652,137.339828,,,,,,,,,,,,,,,,,,,,,,�g�C���L�E���ԏꖳ
232076,TY1300000057,���m���L��s,��{�ь���,�C�`�m�~���j�V�L�R�E�G��,,232076,,���m���L��s��{����9,���m��,�L��s,��{����,9,,,34.848599,137.417609,,,,,,,,,,,,,,,,,,,,,,�g�C���L�E���ԏꖳ
232076,TY1300000058,���m���L��s,��{�Ќ���,�C�`�m�~�����V���R�E�G��,,232076,,���m���L��s��{����157,���m��,�L��s,��{����,157,,,34.84946,137.419598,,,,,,,,,,,,,,,,,,,,,,�g�C���L�E���ԏꖳ
232076,TY1300000059,���m���L��s,��{�K����,�C�`�m�~���~���L�R�E�G��,,232076,,���m���L��s��{���K33,���m��,�L��s,��{���K,33,,,34.850931,137.418775,,,,,,,,,,,,,,,,,,,,,,�g�C���L�E���ԏꖳ
232076,TY1300000060,���m���L��s,��{�Ό���,�C�`�m�~���~�h���R�E�G��,,232076,,���m���L��s��{����61,���m��,�L��s,��{����,61,,,34.852612,137.417742,,,,,,,,,,,,,,�L,,,,,,,,���@�\�g�C���L�i�Ԉ֎q�j�E���ԏꖳ
232076,TY1300000061,���m���L��s,��{�h����,�C�`�m�~���T�J�G�R�E�G��,,232076,,���m���L��s��{���h111,���m��,�L��s,��{���h,111,,,34.854777,137.420252,,,,,,,,,,,,,,�L,,,,,,,,���@�\�g�C���L�i�Ԉ֎q�j�E���ԏꖳ
232076,TY1300000062,���m���L��s,��{�����,�C�`�m�~���C�Y�~�R�E�G��,,232076,,���m���L��s��{����52,���m��,�L��s,��{����,52,,,34.853506,137.422630,,,,,,,,,,,,,,�L,,,,,,,,���@�\�g�C���L�i�Ԉ֎q�j�E���ԏꖳ
232076,TY1300000063,���m���L��s,�����R����,�V���i�K���}�R�E�G��,,232076,,���m���L��s�����R���≺91-1,���m��,�L��s,�����R���≺,91��1,,,34.805442,137.377980,,,,,,,,,,,,,,�L,,,,,,,,���@�\�g�C���L�i�Ԉ֎q�j�E���ԏꖳ
232076,TY1300000064,���m���L��s,���v�ۊ݉�����,�E�V�N�{�L�V�V�^�R�E�G��,,232076,,���m���L��s���v�ے��݉�22-1,���m��,�L��s,���v�ے��݉�,22��1,,,34.810688,137.385620,,,,,,,,,,,,,,�L,,,,,,,,���@�\�g�C���L�i�Ԉ֎q�j�E���ԏꖳ
232076,TY1300000065,���m���L��s,������m������,�����^�J�~�m�]�E�R�E�G��,,232076,,���m���L��s�L�쐼���y�n��搮������147�X��,���m��,�L��s,�L�쐼���y�n��搮������,147�X��,,,34.836530,137.338251,,,,,,,,,,,,,,�L,,,,,,,,���@�\�g�C���L�i�Ԉ֎q�j�E���ԏꖳ
232076,TY1300000066,���m���L��s,���c������,�I�_�u�`�R�E�G��,,232076,,���m���L��s���c����������61-1,���m��,�L��s,���c����������,61��1,,,34.815241,137.344474,,,,,,,,,,,,,,�L,,,,,,,,���@�\�g�C���L�i�Ԉ֎q�j�E���ԏꖳ
232076,TY1300000067,���m���L��s,���c����,�T�N���_�R�E�G��,,232076,,���m���L��s���{�����c133-1,���m��,�L��s,���{�����c,133��1,,,34.839538,137.326275,,,,,,,,,,,,,,�L,,,,,,,,���@�\�g�C���L�i�Ԉ֎q�j�E���ԏꖳ
232076,TY1300000068,���m���L��s,���R����,�q�K�V���}�R�E�G��,,232076,,���m���L��s��������P�J284-1,���m��,�L��s,��������P�J,284��1,,,34.849285,137.323319,,,,,,,,,,,,,,�L,�L,,,,,,,���@�\�g�C���L�i�Ԉ֎q�j�E���ԏꖳ
232076,TY1300000069,���m���L��s,�ӂꂠ������,�t���A�C�R�E�G��,,232076,,���m���L��s���y��21-1,���m��,�L��s,���y��,21��1,,,34.836933,137.390143,,,,,,,,,,,,,,�L,,,,,,,,���@�\�g�C���L�i�Ԉ֎q�j�E���ԏꖳ
232076,TY1300000070,���m���L��s,���Ë�����,�g�E�S�o�V�R�E�G��,,232076,,���m���L��s���Ò������K26,���m��,�L��s,���Ò������K,26,,,34.811117,137.419077,,,,,,,,,,,,,,,,,,,,,,�g�C���L�E���ԏꖳ
232076,TY1300000071,���m���L��s,���ʂ����~����,�T�k�L���V�L�R�E�G��,,232076,,���m���L��s�q�쒬���L��50-1,���m��,�L��s,�q�쒬���L��,50��1,,,34.821320,137.408576,,,,,,,,,,,,,,,,,,,,,,�g�C���L�E���ԏꖳ
232076,TY1300000072,���m���L��s,��m������,�z�m�n���R�E�G��,,232076,,���m���L��s��m���񒚖�1-16,���m��,�L��s,��m���񒚖�,1��16,,,34.829573,137.364862,,,,,,,,,,,,,,,,,,,,,,�g�C���L�E���ԏꖳ
232076,TY1300000073,���m���L��s,��쒆�ǂ������,�E�G�m�i�J�h�I���R�E�G��,,232076,,���m���L��s���O����13-1,���m��,�L��s,���O����,13��1,,,34.841929,137.415430,,,,,,,,,,,,,,,,,,,,,,�g�C���L�E���ԏꖳ
232076,TY1300000074,���m���L��s,�ԍ��1������,�A�J�T�J�_�C�C�`�S�E�R�E�G��,,232076,,���m���L��s�ԍ��1610,���m��,�L��s,�ԍ��,1610,,,34.868702,137.306898,,,,,,,,,,,,,,�L,�L,,,,,,,���@�\�g�C���L�i�Ԉ֎q�E���c���j�E���ԏꖳ
232076,TY1300000075,���m���L��s,�ԍ��3������,�A�J�T�J�_�C�T���S�E�R�E�G��,,232076,,���m���L��s�ԍ��1626,���m��,�L��s,�ԍ��,1626,,,34.873187,137.307058,,,,,,,,,,,,,,,,,,,,,,�g�C���L�E���ԏꖳ
232076,TY1300000076,���m���L��s,�T���q���ԍⓌ�R��������,�T���q���A�J�T�J�q�K�V���}�`���E�I�E�R�E�G��,,232076,,���m���L��s�ԍ⒬���R444,���m��,�L��s,�ԍ⒬���R,444,,,34.856987,137.319767,,,,,,,,,,,,,,,,,,,,,,�g�C���L�E���ԏꖳ
232076,TY1300000077,���m���L��s,�勴������,�I�I�n�V�i���e�R�E�G��,,232076,,���m���L��s�勴���l����12,���m��,�L��s,�勴���l����,12,,,34.837032,137.413668,,,,,,,,,,,,,,�L,,,,,,,,���@�\�g�C���L�i�Ԉ֎q�j�E���ԏꖳ
232076,TY1300000078,���m���L��s,����������,�q���I�q�K�V�R�E�G��,,232076,,���m���L��s�����������c117,���m��,�L��s,�����������c,117,,,34.851281,137.347457,,,,,,,,,,,,,,�L,,,,,,,,���@�\�g�C���L�i�Ԉ֎q�j�E���ԏꖳ
232076,TY1300000079,���m���L��s,��؂P������,�I�I�M�C�`�S�E�R�E�G��,,232076,,���m���L��s��ؐV���ʎl����249,���m��,�L��s,��ؐV���ʎl����,249,,,34.842938,137.407890,,,,,,,,,,,,,,�L,�L,,,,,,,���@�\�g�C���L�i�Ԉ֎q�E���c���j�E���ԏꖳ
232076,TY1300000080,���m���L��s,���������,�q���I�~�i�~�R�E�G��,,232076,,���m���L��s�L�쐼���y�n��搮������147�X��,���m��,�L��s,�L�쐼���y�n��搮������,147�X��,,,34.843496,137.339179,,,,,,,,,,,,,,�L,�L,,,,,,,���@�\�g�C���L�i�Ԉ֎q�E���c���j�E���ԏꖳ
232076,TY1300000081,���m���L��s,�w���d�Ԓʌ���,�G�L�q�K�V�f���V���h�I���R�E�G��,,232076,,���m���L��s�L��w���y�n��搮������94�X��,���m��,�L��s,�L��w���y�n��搮������,94�X��,,,34.825021,137.400174,,,,,,,,,,,,,,�L,�L,,,,,,,���@�\�g�C���L�i�Ԉ֎q�E���c���j�E���ԏꖳ
232076,TY1300000082,���m���L��s,�񒚖ڑ�؂��݂̂�����,�j�`���E���I�I�M���~�m�L�R�E�G��,,232076,,���m���L��s��ؐV���ʓ񒚖�31,���m��,�L��s,��ؐV���ʓ񒚖�,3,,,34.847126,137.412894,,,,,,,,,,,,,,�L,�L,,,,,,,���@�\�g�C���L�i�Ԉ֎q�E���c���j�E���ԏꖳ
232076,TY1300000083,���m���L��s,���ԓy����,�j�V�A�J�c�`�R�E�G��,,232076,,���m���L��s�L�쐼���y�n��搮������127�X��,���m��,�L��s,�L�쐼���y�n��搮������,127�X��,,,34.837360,137.334140,,,,,,,,,,,,,,�L,�L,,,,,,,���@�\�g�C���L�i�Ԉ֎q�E���c���j�E���ԏꖳ
232076,TY1300000084,���m���L��s,�꒚�ڑ�؂Ђ܂�����,�C�b�`���E���I�I�M�q�}�����R�E�G��,,232076,,���m���L��s��ؐV���ʈ꒚��104,���m��,�L��s,��ؐV���ʈ꒚��,104,,,34.848017,137.411016,,,,,,,,,,,,,,�L,�L,,,,,,,���@�\�g�C���L�i�Ԉ֎q�E���c���j�E���ԏꖳ
232076,TY1300000085,���m���L��s,�O������,�T���~���E�R�E�G��,,232076,,���m���L��s�L��w���y�n��搮������51�X��̈ꕔ,���m��,�L��s,�L��w���y�n��搮������,51�X��̈ꕔ,,,34.820781,137.398375,,,,,,,,,,,,,,�L,�L,,,,,,,���@�\�g�C���L�i�Ԉ֎q�E���c���j�E���ԏ�L
232076,TY1300000086,���m���L��s,�V������,�V���~�`�R�E�G��,,232076,,���m���L��s�V�����񒚖�42,���m��,�L��s,�V�����񒚖�,42,,,34.821616,137.361381,,,,,,,,,,,,,,,,,,,,,,�g�C���L�E���ԏ�L
232076,TY1300000087,���m���L��s,�{�쌴��1����,�z���m�n���_�C�C�`�R�E�G��,,232076,,���m���L��s�{��P���O����59,���m��,�L��s,�{��P���O����,59,,,34.836616,137.405181,,,,,,,,,,,,,,�L,,,,,,,,"���@�\�g�C���L�i�Ԉ֎q�j�E���ԏ�L
�^���{�݂̗��p�ɂ��Ă͖L��s�����̈�ق܂Łi�d�b�F86�|5175�j"
232076,TY1300000088,���m���L��s,��ʌ���,���h�I���R�E�G��,,232076,,���m���L��s��x��97,���m��,�L��s,��x��,97,,,34.834342,137.401100,,,,,,,,,,,,,,�L,,,,,,,,"���@�\�g�C���L�i�Ԉ֎q�j�E���ԏꖳ
�^���{�݂̗��p�ɂ��Ă͖L��s�����̈�ق܂Łi�d�b�F86�|5175�j"
232076,TY1300000089,���m���L��s,��׌���,�C�i���R�E�G��,,232076,,���m���L��s�Β�32,���m��,�L��s,�Β�,32,,,34.830009,137.38970,,,,,,,,,,,,,,�L,,,,,,,,"���@�\�g�C���L�i�Ԉ֎q�j�E���ԏꖳ
�^���{�݂̗��p�ɂ��Ă͖L��s�����̈�ق܂Łi�d�b�F86�|5175�j"
232076,TY1300000090,���m���L��s,������,�I�I�T�L�R�E�G��,,232076,,���m���L��s��蒬�V�_�O176-1,���m��,�L��s,��蒬�V�_�O,176��1,,,34.840839,137.370254,,,,,,,,,,,,,,�L,�L,,,,,,,"���@�\�g�C���L�i�Ԉ֎q�E���c���j�E���ԏ�L
�^���{�݂̗��p�ɂ��Ă͖L��s�����̈�ق܂Łi�d�b�F86�|5175�j"
232076,TY1300000091,���m���L��s,���Ì���,�g�E�S�R�E�G��,,232076,,���m���L��s���Ò��쒆35,���m��,�L��s,���Ò��쒆,35,,,34.817753,137.421374,,,,,,,,,,,,,,�L,�L,,,,,,,���@�\�g�C���L�i�Ԉ֎q�E���c���j�E���ԏꖳ
232076,TY1300000092,���m���L��s,���ʌ���,�I�h�I���R�E�G��,,232076,,���m���L��s�V�_��23,���m��,�L��s,�V�_��,23,,,34.824591,137.405020,,,,,,,,,,,,,,,,,,,,,,�g�C���L�E���ԏꖳ
232076,TY1300000093,���m���L��s,����䒆������,�R�U�J�C�`���E�I�E�R�E�G��,,232076,,���m���L��s�ɓޒ��D�a26-49,���m��,�L��s,�ɓޒ��D�a,26��49,,,34.799653,137.349781,,,,,,,,,,,,,,�L,,,,,,,,���@�\�g�C���L�i�Ԉ֎q�j�E���ԏꖳ
232076,TY1300000094,���m���L��s,�����̂�����,�N�X�m�L�R�E�G��,,232076,,���m���L��s�L�쐼���y�n��搮������57�X��,���m��,�L��s,�L�쐼���y�n��搮������,57�X��,,,34.841012,137.335316,,,,,,,,,,,,,,�L,,,,,,,,���@�\�g�C���L�i�Ԉ֎q�j�E���ԏ�L
232076,TY1300000095,���m���L��s,�V�r����,�V���C�P�R�E�G��,,232076,,���m���L��s�ɓޒ���m��1,���m��,�L��s,�ɓޒ���m��,1,,,34.800034,137.342341,,,,,,,,,,,,,,�L,,,,,,,,���@�\�g�C���L�i�Ԉ֎q�j�E���ԏ�L
232076,TY1300000096,���m���L��s,���P�u����,�T�N���K�I�J�R�E�G��,,232076,,���m���L��s���P�u��79-2,���m��,�L��s,���P�u��,79��2,,,34.829336,137.388923,,,,,,,,,,,,,,,,,,,,,,"�g�C���L�E���ԏ�L
�^���{�݂̗��p�ɂ��Ă͖L��s�����̈�ق܂Łi�d�b�F86�|5175�j
�����u�~���[�W�A���ɂ��Ă͕����U���ۂ܂Łi�d�b�F85�|3775�j
�i�����u�~���[�W�A�����ɑ��ړI�g�C���L�j"
232076,TY1300000097,���m���L��s,�O�@�R����,�R�E�{�E���}�R�E�G��,,232076,,���m���L��s���{�����{104-1,���m��,�L��s,���{�����{,104��1,,,34.831144,137.322388,,,,,,,,,,,,,,�L,,,,,,,,"���@�\�g�C���L�i�Ԉ֎q�j�E���ԏ�L
�^���{�݂̗��p�ɂ��Ă͖L��s�����̈�ق܂Łi�d�b�F86�|5175�j"
232076,TY1300000098,���m���L��s,���R����,�e�h�����}�R�E�G��,,232076,,���m���L��s�㒷�R�����E�{�{���n��,���m��,�L��s,�㒷�R�����E�{�{��,�n��,,,34.879141,137.428057,,,,,,,,,,,,,,�L,,,,,,,,���@�\�g�C���L�i�Ԉ֎q�j�E���ԏ�L
232076,TY1300000099,���m���L��s,�ԒˎR����,�A�J�c�J���}�R�E�G��,,232076,,���m���L��s�s�c�������1-30,���m��,�L��s,�s�c�������,1��30,,,34.847592,137.358491,,,,,,,,,,,,,,�L,,,,,,,,"���@�\�g�C���L�i�Ԉ֎q�j�E���ԏ�L
�L��i�Ƃ悪��j�ɐ��ދ��␶���𒆐S�ɁA���R�ɋ߂���Ԃł킩��₷���W������W���������فu���催�僉���h�v�A���o��|�j�[�A�������Ɛe���߂�u�A�j�A�j�܂���v�A�����ƗV�ׂ�u�����L��v�̂ق��A���̍L��A�Ԃ��傤�ԉ��A�~���Ȃǂ�����A�q�������l�܂Ŋy���߂鑍�������ł��B
���s���̃X�N�G�A�̗��p�ɂ��Ă͐ԒˎR�����Ǘ��������܂�
�����催�僉���h�E�A�j�A�j�܂���J�َ��ԁF9������17���܂�
�������F����
�x�فF�Ηj���A�j���̗����A�N���N�n
�z�[���y�[�W�t�q�k�Fhttp://www.akatsukayama.jp"
232076,TY1300000100,���m���L��s,�L�����,�g���J���R�E�G��,,232076,,���m���L��s�z�K�꒚��78��18,���m��,�L��s,�z�K�꒚��,78��18,,,34.828208,137.374413,,,,,,,,,,,,,,�L,�L,�L,,,,,,"���@�\�g�C���L�i�Ԉ֎q�E���c���E�I�X�g���C�g�j�E���ԏ�L
�^���{�݂̗��p�ɂ��Ă͖L��s�����̈�ق܂Łi�d�b�F86�|5175�j
�}���فE�v���l�^���E���ɂ��Ă͒����}���ق܂Łi�d�b�F85�|5536�j"
232076,TY1300000101,���m���L��s,�X�|�[�c����,�X�|�[�c�R�E�G��,,232076,,���m���L��s�痼���܋�20-1,���m��,�L��s,�痼���܋�,20��1,,,34.854295,137.372961,,,,,,,,,,,,,,�L,�L,,,,,,,"���@�\�g�C���L�i�Ԉ֎q�E���c���j�E���ԏ�L
�싅��̗��p�ɂ��ẮA�L��s�����̈�ق܂Łi�d�b�F86�|5175�j"
232076,TY1300000102,���m���L��s,�s���Βn,�M���E���C�����N�`,,232076,,���m���L��s�s��������1194,���m��,�L��s,�s��������,1194,,,34.805351,137.401170,,,,,,,,,,,,,,,,,,,,,,���݃g�C���L�E���ԏꖳ
232076,TY1300000103,���m���L��s,�O��Βn,�~�J�~�����N�`,,232076,,���m���L��s�O�㒬�O���쌴106,���m��,�L��s,�O�㒬�O���쌴,106,,,34.820428,137.432872,,,,,,,,,,,,,,,,,,,,,,���݃g�C���L�E���ԏ�L
232076,TY1300000104,���m���L��s,��������،���,�S���}�c�i�~�L�R�E�G��,,232076,,���m���L��s���������20-1,���m��,�L��s,���������,20��1,,,34.851923,137.312128,,,,,,,,,,,,,,�L,,,,,,,,���@�\�g�C���L�i�Ԉ֎q�j�E���ԏ�L
232076,TY1300000105,���m���L��s,�L��C�R�H�����a����,�g���J���J�C�O���R�E�V���E�w�C���R�E�G��,,232076,,���m���L��s��m���O����13-2,���m��,�L��s,��m���O����,13��2,,,34.839555,137.368076,,,,,,,,,,,,,,�L,�L,,,,,,,"���@�\�g�C���L�i�Ԉ֎q�j�E���ԏ�L
�{�݂̗��p�ɂ��Ă͖L��s���a�𗬊ق܂Łi�d�b�F95-3069�j"
232076,TY1300000106,���m���L��s,�ԑ㎙���V��,�A�J�V���W�h�E���E�G��,,232076,,���m���L��s�ԑ㒬�񒚖�5,���m��,�L��s,�ԑ㒬�񒚖�,5,,,34.822443,137.379355,,,,,,,,,,,,,,,,,,,,,,�g�C���L
232076,TY1300000107,���m���L��s,�����؎����V��,�j�V�T�N���M�W�h�E���E�G��,,232076,,���m���L��s�����ؒ��꒚��51,���m��,�L��s,�����ؒ��꒚��,51,,,34.831371,137.388142,,,,,,,,,,,,,,,,,,,,,,�g�C���L
232076,TY1300000108,���m���L��s,�V�h�����V��,�V���T�J�G�W�h�E���E�G��,,232076,,���m���L��s�V�h���O����75-1,���m��,�L��s,�V�h���O����,75��1,,,34.835395,137.326548,,,,,,,,,,,,,,,,,,,,,,�g�C���L
232076,TY1300000109,���m���L��s,��������V��,�m�O�`�W�h�E���E�G��,,232076,,���m���L��s���������41,���m��,�L��s,���������,41,,,34.836406,137.354681,,,,,,,,,,,,,,,,,,,,,,�g�C���L
232076,TY1300000110,���m���L��s,��h�����V��,�E�G�W���N�W�h�E���E�G��,,232076,,���m���L��s��������h13-1,���m��,�L��s,��������h,13��1,,,34.840432,137.330269,,,,,,,,,,,,,,,,,,,,,,�g�C���L
232076,TY1300000111,���m���L��s,���c�������V��,�I�_�u�`�W�h�E���E�G��,,232076,,���m���L��s���c��������25-8,���m��,�L��s,���c��������,25��8,,,34.814889,137.347347,,,,,,,,,,,,,,,,,,,,,,�g�C���L
232076,TY1300000112,���m���L��s,��莙���V��,�I�I�T�L�W�h�E���E�G��,,232076,,���m���L��s��蒬����89-2,���m��,�L��s,��蒬����,89��2,,,34.842805,137.376362,,,,,,,,,,,,,,,,,,,,,,�g�C���L